Location: Capelle
(50.3413°N, 1.9974°E)
Time: 23:29:03
(UTC+00:00)

Cosmos 1703 - Pass Details

Date: 12 January 2026
Orbit: 413 x 424 km, 82.5° (Epoch: 17 February)

Event Time Altitude Azimuth Distance (km) Brightness Sun altitude
Rises 17:52:01 0° 175° (S) 2,407 6.7 -15.1°
Reaches altitude 10° 17:54:06 10° 169° (S) 1,544 5.7 -15.5°
Maximum altitude 17:57:20 46° 95° (E) 600 3.1 -15.9°
Enters shadow 17:58:12 36° 52° (NE) 711 3.4 -16.1°
